Woolwich, ME

2:30 PM EST on December 08, 2016 (GMT -0500)
Wiscasset

Weather History for KIWI - November, 2012

Change the Weather History Date:

Wednesday, November 7, 2012

  Actual Average Record
Temperature  
Mean Temperature 30 °F -  
Max Temperature 37 °F 46 °F 60 °F (2008)
Min Temperature 23 °F 30 °F 21 °F (2002)
Degree Days  
Heating Degree Days 35    
Moisture  
Dew Point 19 °F    
Average Humidity 62    
Maximum Humidity 93    
Minimum Humidity 37    
Precipitation  
Precipitation 0.09 in - - ()
Sea Level Pressure  
Sea Level Pressure 30.08 in    
Wind  
Wind Speed 4 mph (NNE)    
Max Wind Speed 12 mph    
Max Gust Speed 21 mph    
Visibility 7 miles    
Events Snow    
Averages and records for this station are not official NWS values.
T = Trace of Precipitation, MM = Missing Value Source: NWS Daily Summary

Daily Weather History Graph

Daily Weather History Graph

Search for Another Location

Airport or City:

Trip Planner

Search our weather history database for the weather conditions in past years. The results will help you decide how hot, cold, wet, or windy it might be!

Date:

Astronomy

Nov. 07, 2012 Rise Set
Actual Time 6:23 AM EST 4:20 PM EST
Civil Twilight 5:53 AM EST 4:51 PM EST
Nautical Twilight 5:18 AM EST 5:25 PM EST
Astronomical Twilight 4:45 AM EST 5:59 PM EST
Moon No Moon Rise 12:41 PM EST (11/7)
Length of Visible Light 10h 58m
Length of Day
9h 57m
Last Quarter, 43% of the Moon is Illuminated
Nov 7
Last Quarter
Nov 13
New
Nov 20
First Quarter
Nov 28
Full
Dec 6
Last Quarter

Hourly Weather History & Observations

Time (EST) Temp. Windchill Dew Point Humidity Pressure Visibility Wind Dir Wind Speed Gust Speed Precip Events Conditions
12:53 AM 23.0 °F - 18.0 °F 81% 30.26 in 10.0 mi Calm Calm - N/A   Clear
1:53 AM 23.0 °F - 18.0 °F 81% 30.27 in 10.0 mi Calm Calm - N/A   Clear
2:53 AM 26.1 °F - 16.0 °F 66% 30.25 in 10.0 mi Calm Calm - N/A   Clear
3:53 AM 28.0 °F 22.8 °F 16.0 °F 61% 30.27 in 10.0 mi NE 4.6 mph - N/A   Clear
4:53 AM 28.0 °F 24.2 °F 16.0 °F 61% 30.26 in 10.0 mi Variable 3.5 mph - N/A   Clear
5:53 AM 28.9 °F 25.2 °F 16.0 °F 58% 30.25 in 10.0 mi Variable 3.5 mph - N/A   Clear
6:53 AM 28.0 °F 22.8 °F 16.0 °F 61% 30.25 in 10.0 mi Variable 4.6 mph - N/A   Clear
7:53 AM 30.0 °F 25.2 °F 17.1 °F 59% 30.24 in 10.0 mi Variable 4.6 mph - N/A   Clear
8:53 AM 32.0 °F 25.6 °F 17.1 °F 54% 30.21 in 10.0 mi Variable 6.9 mph - N/A   Clear
9:53 AM 34.0 °F 26.6 °F 17.1 °F 50% 30.18 in 10.0 mi NNE 9.2 mph 17.3 mph N/A   Clear
10:53 AM 35.1 °F 29.3 °F 15.1 °F 44% 30.15 in 10.0 mi Variable 6.9 mph - N/A   Clear
11:53 AM 36.0 °F 29.6 °F 14.0 °F 41% 30.12 in 10.0 mi NE 8.1 mph 16.1 mph N/A   Clear
12:53 PM 37.0 °F 33.3 °F 12.9 °F 37% 30.09 in 10.0 mi Variable 4.6 mph - N/A   Clear
1:53 PM 36.0 °F 31.1 °F 14.0 °F 41% 30.06 in 10.0 mi Variable 5.8 mph 16.1 mph N/A   Clear
2:53 PM 36.0 °F 33.3 °F 14.0 °F 41% 30.04 in 10.0 mi Variable 3.5 mph - N/A   Clear
3:53 PM 36.0 °F 32.1 °F 14.0 °F 41% 30.02 in 10.0 mi Variable 4.6 mph - N/A   Clear
4:53 PM 36.0 °F 31.1 °F 12.9 °F 39% 30.02 in 10.0 mi Variable 5.8 mph - N/A   Clear
6:53 PM 37.0 °F 33.3 °F 15.1 °F 41% 29.99 in 10.0 mi Variable 4.6 mph - N/A   Mostly Cloudy
7:53 PM 37.0 °F 32.4 °F 16.0 °F 42% 29.99 in 10.0 mi NE 5.8 mph - N/A   Overcast
8:53 PM 37.0 °F 31.6 °F 17.1 °F 44% 29.98 in 10.0 mi Variable 6.9 mph - N/A   Overcast
9:43 PM 35.6 °F 28.6 °F 23.0 °F 60% 29.97 in 4.0 mi NNE 9.2 mph 20.7 mph 0.00 in Snow Light Snow
9:53 PM 34.0 °F 27.2 °F 24.1 °F 67% 29.97 in 6.0 mi NNE 8.1 mph - 0.00 in Snow Light Snow
10:24 PM 33.8 °F 27.0 °F 24.8 °F 70% 29.96 in 2.5 mi NNE 8.1 mph 19.6 mph 0.00 in Snow Light Snow
10:31 PM 33.8 °F 27.0 °F 26.6 °F 75% 29.95 in 1.2 mi NE 8.1 mph 19.6 mph 0.00 in Snow Light Snow
10:46 PM 32.0 °F 26.4 °F 28.4 °F 87% 29.95 in 0.8 mi Variable 5.8 mph - 0.02 in Snow Light Snow
10:53 PM 32.0 °F 24.8 °F 28.0 °F 85% 29.95 in 0.8 mi NNE 8.1 mph - 0.03 in Snow Light Snow
11:26 PM 30.2 °F 23.4 °F 28.4 °F 93% 29.93 in 1.0 mi Variable 6.9 mph - 0.03 in Snow Light Snow
11:45 PM 30.2 °F 25.4 °F 28.4 °F 93% 29.92 in 0.8 mi Variable 4.6 mph - 0.05 in Snow Light Snow
11:53 PM 30.9 °F 24.3 °F 28.0 °F 89% 29.91 in 0.8 mi Variable 6.9 mph - 0.06 in Snow Light Snow
11:57 PM 30.2 °F 20.8 °F 28.4 °F 93% 29.91 in 1.0 mi North 11.5 mph 17.3 mph 0.00 in Snow Light Snow